Current Version              Previous Version:    01  02  03  04  05  06  07  08  09  10  11  12  13  14  15  16  17  18  19  20  21  22  23  24  25  26  27  28  29  30  
   31  32  33  34  35  36  37  38  39  40  41  42  43  44  45  46  47  48  49  50  51  52  53  54  55  56  57  58  59  60  

[Printable]
122
ASUS44 KEWX 241102
RWRTX
SOUTH TEXAS REGIONAL WEATHER ROUNDUP
NATIONAL WEATHER SERVICE AUSTIN/SAN ANTONIO TX
600 AM CDT THU APR 24 2014

NOTE: "FAIR" INDICATED FEW OR NO CLOUDS BELOW 12,000 FEET WITH NO
SIGNIFICANT WEATHER AND/OR OBSTRUCTIONS TO VISIBILITY.

* - THESE STATIONS ARE NOT NWS OR FAA STATIONS...AND ARE NOT SUBJECT
    TO NWS AND FAA QUALITY CONTROL.

TXZ171-172-183>190-241200-
TEXAS HILL COUNTRY AND EDWARDS PLATEAU

CITY           SKY/WX    TMP DP  RH WIND       PRES   REMARKS
JUNCTION       PTCLDY    67  60  78 SW3       29.78R
*LLANO         PTCLDY    63  61  94 SE6       29.81S
BURNET         CLEAR     64  60  87 S7        29.81S
*HORSESHOE BAY PTCLDY    65  60  82 S7        29.78S
*KERRVILLE     CLOUDY    64  61  90 SE10      29.80S
*FREDERICKSBRG CLOUDY    64  59  85 S6        29.79S
*ROCKSPRINGS   PTCLDY    63  61  94 S8        29.83R
*BOERNE STAGE  CLOUDY    64  61  88 S8        29.81S
*CASTROVILLE   MOCLDY    64  62  92 E6        29.80R
HONDO          CLOUDY    68  62  81 E5        29.80S
*UVALDE        CLOUDY    68  63  84 E8        29.78S
DEL RIO        PTCLDY    69  61  75 E9        29.76R
LAUGHLIN AFB   PTCLDY    67  62  82 E8        29.78R
CARRIZO SPRGS  CLOUDY    68  63  83 E5        29.75R
$$

TXZ173-191>194-202-209-217>225-228-241200-
CENTRAL AND SOUTH CENTRAL TEXAS

CITY           SKY/WX    TMP DP  RH WIND       PRES   REMARKS
GEORGETOWN     CLOUDY    66  61  82 S9        29.80R
AUSTIN/BERGSTM MOCLDY    65  63  93 SE5       29.80R
AUSTIN/MABRY   CLOUDY    67  63  87 VRB5      29.81R
*AUSTIN/EXEC   CLOUDY    66  64  94 S5        29.81S
*LAGO VISTA    CLOUDY    66  62  85 S8        29.81S
SAN MARCOS     PTCLDY    64  61  88 S5        29.82R
NEW BRAUNFELS  MOCLDY    63  62  97 S3        29.78S
RANDOLPH AFB   MOCLDY    65  62  92 SE5       29.80R
PT SAN ANTONIO MOCLDY    66  64  94 SE6       29.78R
SAN ANTONIO    CLOUDY    68  64  87 S7        29.80R
STINSON FIELD  MOCLDY    67  64  90 SE5       29.77F
*PLEASANTON    MOCLDY    66  63  90 E5        29.79F
*LA GRANGE     MOCLDY    67  66  97 SE5       29.80S
*GIDDINGS      MOCLDY    67  64  89 S9        29.85R
*GONZALES      MOCLDY    67  66  97 SE6       29.79F
$$

TXZ163>164-176>182-195>201-210>213-226-227-235-241200-
SOUTHEAST TEXAS

CITY           SKY/WX    TMP DP  RH WIND       PRES   REMARKS
COLLEGE STN    CLOUDY    68  65  90 S9        29.83R
*BRYAN         CLOUDY    67  64  89 S8        29.82R
*CALDWELL      CLOUDY    66  66 100 S7        29.85R
*CROCKETT      MOCLDY   N/A N/A N/A S3        29.86R
*BRENHAM       CLOUDY    66  64  93 S6        29.83R
HUNTSVILLE     MOCLDY    67  63  87 VRB3      29.84R
CONROE         CLOUDY    67  65  93 S7        29.85R
HOUSTON BUSH   CLOUDY    70  66  87 S6        29.83R
HOUSTON HOBBY  CLOUDY    70  66  87 S7        29.83R
*HOUSTON SW AP CLOUDY    68  68  99 SE3       29.83S
PEARLAND       CLOUDY    71  65  81 S8        29.85R
HOUSTON HOOKS  CLOUDY    70  66  87 VRB7      29.84R
ELLINGTON FLD  MOCLDY    70  66  88 S7        29.86R
SUGAR LAND     MOCLDY    68  66  93 S7        29.83S
*HOUSTON EXEC  MOCLDY    66  66 100 SE5       29.85R
*CLEVELAND MUN CLOUDY    65  65  98 CALM      29.85S FOG
*WHARTON       MOCLDY    67  66  94 S7        29.83S
$$

TXZ214>216-236>238-241200-
THE UPPER TEXAS COAST

CITY           SKY/WX    TMP DP  RH WIND       PRES   REMARKS
*ORANGE        CLOUDY    69  67  93 S7        29.87S
PORT ARTHUR    MOCLDY    68  65  90 S6        29.86R
GALVESTON      PTCLDY    70  68  93 S10       29.84S
ANGLETON       PTCLDY    69  67  93 S8        29.83S
*BAY CITY      CLOUDY    71  69  92 S6        29.82R
PALACIOS       MOCLDY    72  68  87 S13       29.82R
$$

TXZ229>234-239>247-241200-
TEXAS COASTAL BEND AND RIO GRANDE PLAINS

CITY           SKY/WX    TMP DP  RH WIND       PRES   REMARKS
VICTORIA       PTCLDY    68  66  93 S8        29.82R
*BEEVILLE      PTCLDY    69  68  97 SE7       29.78F
ROCKPORT       CLOUDY    72  68  87 S7G18     29.79R
*PORT ARANSAS  MOCLDY    71  70  97 S12G18    29.78R
*PORT LAVACA   PTCLDY    70  66  88 S8        29.81S
*INGLESIDE     CLOUDY    73  70  88 S16G24    29.77R
CORPUS CHRISTI CLOUDY    73  68  84 S12       29.78R
CORPUS NAS     MOCLDY    73  69  87 S15G25    29.77R
*ROBSTOWN      CLOUDY    73  69  88 SE7       29.77R
ALICE          CLOUDY    70  67  90 CALM      29.77R
KINGSVILLE NAS CLEAR     70  68  93 S3        29.77R
COTULLA        CLOUDY    70  63  78 SE10      29.77S
*FAITH RANCH   CLOUDY    72  64  78 SE6       29.76R
LAREDO         CLOUDY    73  67  81 S9        29.78R
$$

TXZ248>255-241200-
DEEP SOUTH TEXAS

CITY           SKY/WX    TMP DP  RH WIND       PRES   REMARKS
BROWNSVILLE    CLOUDY    73  70  90 S16G24    29.75R
PORT ISABEL    NOT AVBL
*SOUTH PADRE   LGT RAIN  72  70  94 CALM      29.76R
HARLINGEN      MOCLDY    73  68  84 S17       29.74R
*HEBBRONVILLE  PTCLDY    67  65  93 CALM      29.76R
MCALLEN        PTCLDY    72  68  87 SE15      29.73S
*WESLACO       MOCLDY    72  67  84 S12       29.73S
FALFURRIAS     PTCLDY    69  66  89 SE10      29.73S
EDINBURG       PTCLDY    73  68  84 S10       29.74S
*ZAPATA        CLOUDY    70  65  84 CALM      29.74R
$$

TXZ213>215-236>238-242>244-246-247-251-254-255-241200-
CMAN STATIONS

STATION/POSITION TIME  TEMP    WIND        PRES    WAVE
                       AIR SEA DIR/SP/G            HT/PER
                 (UTC) (F)     (DEG/KT/KT) (MB)    (FT/S)
SABINE PASS      1000   70 71  180/ 10/ 14 1010.7
SEA RIM ST PARK  1000   70     180/ 12/ 15 1011.3
NORTH JETTY/GLS  1000   70 73  180/ 14/ 16   N/A
EAGLE POINT      1000   71 69  190/ 14/ 18 1009.9
MORGANS POINT    1000   71 69  180/ 11/ 15   N/A
PORT O`CONNOR    1000          170/ 15/ 17   N/A
PORT ARANSAS     1000   71 73  150/ 19/ 21 1007.8
MALAQUITE BEACH  1000   71 73  150/ 17/ 21 1006.3
BAFFIN BAY       1000   71 71  160/ 17/ 21 1006.8
PORT ISABEL      1000   72 74  160/ 15/ 19 1007.4
$$

GMZ080-GMZ150>470-241200-
OFFSHORE BUOY REPORTS

STATION/POSITION TIME  TEMP    WIND        PRES    WAVE
                       AIR SEA DIR/SP/G            HT/PER
                 (UTC) (F)     (DEG/KT/KT) (MB)    (FT/S)
20 E GALVESTON   1100   70 69  160/ 12/ 14 1010.1    2/ 4
35 NE PT MANSFLD 1100   71 70  150/ 14/ 16 1007.7    4/ 6
$$